ENY3366 KMIA-MYEH

Flight info

Callsign ENY3366
Flight time 0h 33m
Altitude 27000
Route KLADA2 RAJAY
Aircraft E75L/M-SDE3GILORVW/S

Departure

Time 2026-05-04 22:11
Airport Miami International Airport (KMIA)

Arrival

Time 2026-05-04 22:45
Airport North Eleuthera Airport (MYEH)
Time Latitude Longitude Altitude Speed Heading
2026-05-04 21:40 25.79791 -80.28616 12 ft 0 kts 52°
2026-05-04 21:58 25.79786 -80.28622 12 ft 2 kts 51°
2026-05-04 21:58 25.79783 -80.28627 12 ft 0 kts 51°
2026-05-04 21:59 25.79780 -80.28632 12 ft 2 kts 51°
2026-05-04 22:00 25.79770 -80.28645 11 ft 2 kts 50°
2026-05-04 22:00 25.79761 -80.28658 12 ft 2 kts 72°
2026-05-04 22:00 25.79759 -80.28674 12 ft 2 kts 92°
2026-05-04 22:00 25.79759 -80.28691 12 ft 2 kts 85°
2026-05-04 22:01 25.79758 -80.28708 12 ft 2 kts 88°
2026-05-04 22:01 25.79757 -80.28724 12 ft 2 kts 87°
2026-05-04 22:01 25.79757 -80.28741 12 ft 1 kts 87°
2026-05-04 22:01 25.79757 -80.28738 11 ft 2 kts 86°
2026-05-04 22:02 25.79769 -80.28719 12 ft 3 kts 30°
2026-05-04 22:02 25.79788 -80.28716 12 ft 2 kts
2026-05-04 22:02 25.79806 -80.28715 12 ft 3 kts 355°
2026-05-04 22:02 25.79813 -80.28715 12 ft 0 kts 356°
2026-05-04 22:05 25.79817 -80.28715 12 ft 1 kts 359°
2026-05-04 22:05 25.79832 -80.28715 11 ft 3 kts
2026-05-04 22:06 25.79867 -80.28715 12 ft 6 kts
2026-05-04 22:06 25.79928 -80.28719 12 ft 10 kts 353°
2026-05-04 22:06 25.79996 -80.28745 12 ft 10 kts 315°
2026-05-04 22:06 25.80013 -80.28824 12 ft 11 kts 271°
2026-05-04 22:07 25.80009 -80.28916 12 ft 12 kts 266°
2026-05-04 22:07 25.80006 -80.29015 12 ft 13 kts 270°
2026-05-04 22:07 25.80003 -80.29123 12 ft 14 kts 268°
2026-05-04 22:07 25.79996 -80.29238 11 ft 15 kts 266°
2026-05-04 22:08 25.79992 -80.29364 12 ft 16 kts 269°
2026-05-04 22:08 25.79988 -80.29497 11 ft 17 kts 268°
2026-05-04 22:08 25.79981 -80.29639 12 ft 16 kts 267°
2026-05-04 22:08 25.79977 -80.29773 11 ft 17 kts 268°
2026-05-04 22:09 25.79971 -80.29911 11 ft 17 kts 269°
2026-05-04 22:09 25.79979 -80.29972 12 ft 0 kts 287°
2026-05-04 22:09 25.79979 -80.29974 12 ft 1 kts 287°
2026-05-04 22:09 25.79985 -80.29990 12 ft 3 kts 290°
2026-05-04 22:10 25.80006 -80.30034 12 ft 9 kts 313°
2026-05-04 22:10 25.80073 -80.30044 11 ft 11 kts 61°
2026-05-04 22:10 25.80077 -80.30018 12 ft 2 kts 87°
2026-05-04 22:10 25.80084 -80.29874 12 ft 54 kts 86°
2026-05-04 22:11 25.80114 -80.29129 12 ft 135 kts 88°
2026-05-04 22:11 25.80137 -80.27893 355 ft 171 kts 89°
2026-05-04 22:11 25.79943 -80.26583 999 ft 184 kts 114°
2026-05-04 22:11 25.79289 -80.25311 1523 ft 201 kts 115°
2026-05-04 22:12 25.78612 -80.23785 1753 ft 232 kts 110°
2026-05-04 22:12 25.78004 -80.22119 2536 ft 236 kts 109°
2026-05-04 22:12 25.77454 -80.20373 3310 ft 240 kts 105°
2026-05-04 22:12 25.76957 -80.18655 4215 ft 237 kts 105°
2026-05-04 22:13 25.76254 -80.16943 4748 ft 250 kts 121°
2026-05-04 22:13 25.75366 -80.15334 5216 ft 242 kts 120°
2026-05-04 22:13 25.74574 -80.13673 6010 ft 241 kts 117°
2026-05-04 22:13 25.73788 -80.12012 6652 ft 247 kts 118°
2026-05-04 22:14 25.73038 -80.10155 6772 ft 277 kts 110°
2026-05-04 22:14 25.72368 -80.08073 7376 ft 284 kts 110°
2026-05-04 22:14 25.71701 -80.06036 8144 ft 283 kts 111°
2026-05-04 22:14 25.71011 -80.03944 8646 ft 292 kts 111°
2026-05-04 22:15 25.70295 -80.01778 9284 ft 297 kts 112°
2026-05-04 22:15 25.69566 -79.99580 9887 ft 302 kts 112°
2026-05-04 22:15 25.68828 -79.97355 10425 ft 309 kts 112°
2026-05-04 22:15 25.68051 -79.95016 10487 ft 334 kts 112°
2026-05-04 22:16 25.67219 -79.92509 10656 ft 353 kts 112°
2026-05-04 22:16 25.66357 -79.89911 11269 ft 355 kts 112°
2026-05-04 22:16 25.65491 -79.87309 11862 ft 360 kts 112°
2026-05-04 22:16 25.64616 -79.84679 12355 ft 367 kts 112°
2026-05-04 22:17 25.63716 -79.81974 12929 ft 373 kts 112°
2026-05-04 22:17 25.62814 -79.79268 13561 ft 377 kts 112°
2026-05-04 22:17 25.61894 -79.76506 14242 ft 380 kts 112°
2026-05-04 22:17 25.60967 -79.73731 14946 ft 382 kts 112°
2026-05-04 22:18 25.60046 -79.70968 15841 ft 379 kts 112°
2026-05-04 22:18 25.59224 -79.68144 16453 ft 388 kts 107°
2026-05-04 22:18 25.58480 -79.65210 17112 ft 394 kts 108°
2026-05-04 22:18 25.57724 -79.62270 18002 ft 394 kts 107°
2026-05-04 22:19 25.56960 -79.59312 18691 ft 401 kts 108°
2026-05-04 22:19 25.56180 -79.56302 19324 ft 411 kts 107°
2026-05-04 22:19 25.55386 -79.53236 20123 ft 415 kts 108°
2026-05-04 22:19 25.54584 -79.50146 21092 ft 415 kts 108°
2026-05-04 22:20 25.53776 -79.47034 21909 ft 419 kts 108°
2026-05-04 22:20 25.52953 -79.43870 22557 ft 427 kts 108°
2026-05-04 22:20 25.52120 -79.40670 23301 ft 432 kts 108°
2026-05-04 22:20 25.51280 -79.37443 24077 ft 436 kts 108°
2026-05-04 22:21 25.50429 -79.34180 24744 ft 442 kts 108°
2026-05-04 22:21 25.49574 -79.30904 25388 ft 447 kts 108°
2026-05-04 22:21 25.48690 -79.27517 26090 ft 451 kts 109°
2026-05-04 22:21 25.47806 -79.24139 26716 ft 456 kts 108°
2026-05-04 22:22 25.46929 -79.20789 26939 ft 454 kts 108°
2026-05-04 22:22 25.46024 -79.17339 26994 ft 472 kts 108°
2026-05-04 22:22 25.45084 -79.13757 27007 ft 487 kts 108°
2026-05-04 22:22 25.44126 -79.10105 27003 ft 502 kts 108°
2026-05-04 22:23 25.43128 -79.06312 26976 ft 516 kts 108°
2026-05-04 22:23 25.42122 -79.02488 26976 ft 520 kts 108°
2026-05-04 22:23 25.41099 -78.98605 26968 ft 519 kts 108°
2026-05-04 22:23 25.40084 -78.94756 26979 ft 519 kts 108°
2026-05-04 22:24 25.39060 -78.90882 26974 ft 518 kts 108°
2026-05-04 22:24 25.38046 -78.87048 26978 ft 518 kts 108°
2026-05-04 22:24 25.37036 -78.83233 26973 ft 518 kts 108°
2026-05-04 22:24 25.36028 -78.79424 26974 ft 516 kts 108°
2026-05-04 22:25 25.35003 -78.75566 26978 ft 517 kts 108°
2026-05-04 22:25 25.33975 -78.71696 26962 ft 516 kts 108°
2026-05-04 22:25 25.32970 -78.67917 26984 ft 517 kts 108°
2026-05-04 22:25 25.31938 -78.64040 26948 ft 514 kts 109°
2026-05-04 22:26 25.30917 -78.60209 26994 ft 516 kts 108°
2026-05-04 22:26 25.29890 -78.56361 26941 ft 514 kts 108°
2026-05-04 22:26 25.28863 -78.52515 26994 ft 515 kts 109°
2026-05-04 22:26 25.27847 -78.48721 26943 ft 515 kts 108°
2026-05-04 22:27 25.27223 -78.44827 26921 ft 520 kts 91°
2026-05-04 22:27 25.27556 -78.40847 27076 ft 519 kts 82°
2026-05-04 22:27 25.28017 -78.36872 26967 ft 519 kts 82°
2026-05-04 22:27 25.28473 -78.32865 26982 ft 518 kts 82°
2026-05-04 22:28 25.28920 -78.28912 26947 ft 520 kts 83°
2026-05-04 22:28 25.29349 -78.25095 26968 ft 519 kts 83°
2026-05-04 22:28 25.29795 -78.21117 26957 ft 518 kts 83°
2026-05-04 22:28 25.30213 -78.17095 26964 ft 519 kts 85°
2026-05-04 22:29 25.30535 -78.13131 27322 ft 513 kts 85°
2026-05-04 22:29 25.30860 -78.09206 27135 ft 516 kts 85°
2026-05-04 22:29 25.31185 -78.05297 26677 ft 494 kts 85°
2026-05-04 22:29 25.31488 -78.01637 26710 ft 462 kts 85°
2026-05-04 22:30 25.31769 -77.98225 26715 ft 435 kts 85°
2026-05-04 22:30 25.32040 -77.94916 26774 ft 430 kts 85°
2026-05-04 22:30 25.32317 -77.91539 26750 ft 439 kts 85°
2026-05-04 22:30 25.32589 -77.88216 25776 ft 444 kts 85°
2026-05-04 22:31 25.32873 -77.84740 24435 ft 458 kts 85°
2026-05-04 22:31 25.33154 -77.81279 23548 ft 455 kts 85°
2026-05-04 22:31 25.33438 -77.77783 22633 ft 453 kts 85°
2026-05-04 22:31 25.33719 -77.74299 21892 ft 446 kts 85°
2026-05-04 22:32 25.33991 -77.70931 21231 ft 431 kts 85°
2026-05-04 22:32 25.34248 -77.67727 20613 ft 418 kts 85°
2026-05-04 22:32 25.34504 -77.64525 20051 ft 410 kts 85°
2026-05-04 22:32 25.34752 -77.61430 19518 ft 406 kts 85°
2026-05-04 22:33 25.35001 -77.58305 18999 ft 408 kts 85°
2026-05-04 22:33 25.35252 -77.55139 18261 ft 409 kts 84°
2026-05-04 22:33 25.35500 -77.52013 17323 ft 415 kts 85°
2026-05-04 22:33 25.35753 -77.48817 16434 ft 421 kts 84°
2026-05-04 22:34 25.36007 -77.45593 15511 ft 421 kts 85°
2026-05-04 22:34 25.36257 -77.42411 14903 ft 411 kts 85°
2026-05-04 22:34 25.36505 -77.39244 14181 ft 408 kts 84°
2026-05-04 22:34 25.36750 -77.36111 13468 ft 408 kts 84°
2026-05-04 22:35 25.36993 -77.32998 12783 ft 410 kts 85°
2026-05-04 22:35 25.37239 -77.29836 12127 ft 411 kts 85°
2026-05-04 22:35 25.37483 -77.26694 11414 ft 407 kts 85°
2026-05-04 22:35 25.37719 -77.23644 10524 ft 389 kts 85°
2026-05-04 22:36 25.37943 -77.20740 9779 ft 370 kts 85°
2026-05-04 22:36 25.38155 -77.17978 9087 ft 353 kts 85°
2026-05-04 22:36 25.38359 -77.15327 8453 ft 337 kts 85°
2026-05-04 22:36 25.38552 -77.12795 7820 ft 325 kts 85°
2026-05-04 22:37 25.38739 -77.10350 7207 ft 314 kts 85°
2026-05-04 22:37 25.38923 -77.07941 6592 ft 304 kts 85°
2026-05-04 22:37 25.39097 -77.05649 6003 ft 296 kts 85°
2026-05-04 22:37 25.39274 -77.03321 5396 ft 288 kts 84°
2026-05-04 22:38 25.39441 -77.01119 4854 ft 278 kts 84°
2026-05-04 22:38 25.39596 -76.99061 4478 ft 263 kts 84°
2026-05-04 22:38 25.39747 -76.97068 3882 ft 259 kts 84°
2026-05-04 22:38 25.39897 -76.95075 3294 ft 255 kts 84°
2026-05-04 22:39 25.40042 -76.93139 2718 ft 250 kts 84°
2026-05-04 22:39 25.40185 -76.91249 2150 ft 243 kts 85°
2026-05-04 22:39 25.40324 -76.89398 1637 ft 251 kts 85°
2026-05-04 22:39 25.40526 -76.87568 2155 ft 220 kts 76°
2026-05-04 22:40 25.41062 -76.86025 1802 ft 208 kts 69°
2026-05-04 22:40 25.41582 -76.84628 1712 ft 188 kts 69°
2026-05-04 22:40 25.42058 -76.83334 1563 ft 166 kts 70°
2026-05-04 22:40 25.42471 -76.82204 1831 ft 157 kts 70°
2026-05-04 22:41 25.42902 -76.81018 1673 ft 170 kts 70°
2026-05-04 22:41 25.43323 -76.79864 1531 ft 153 kts 70°
2026-05-04 22:41 25.43700 -76.78828 1453 ft 129 kts 70°
2026-05-04 22:41 25.44005 -76.77992 1472 ft 109 kts 71°
2026-05-04 22:42 25.44289 -76.77205 1571 ft 112 kts 71°
2026-05-04 22:42 25.44585 -76.76383 1578 ft 117 kts 71°
2026-05-04 22:42 25.44898 -76.75518 1430 ft 123 kts 70°
2026-05-04 22:42 25.45218 -76.74631 1071 ft 123 kts 71°
2026-05-04 22:43 25.45509 -76.73789 856 ft 113 kts 72°
2026-05-04 22:43 25.45802 -76.72961 817 ft 117 kts 70°
2026-05-04 22:43 25.46118 -76.72139 694 ft 115 kts 70°
2026-05-04 22:43 25.46410 -76.71325 541 ft 114 kts 70°
2026-05-04 22:44 25.46707 -76.70506 396 ft 114 kts 71°
2026-05-04 22:44 25.47005 -76.69689 247 ft 115 kts 70°
2026-05-04 22:44 25.47293 -76.68889 37 ft 109 kts 69°
2026-05-04 22:44 25.47535 -76.68204 20 ft 74 kts 68°
2026-05-04 22:45 25.47651 -76.67860 28 ft 16 kts 69°
2026-05-04 22:45 25.47647 -76.67884 27 ft 8 kts 245°